NOZ82GE ENGM-LGKF

Flight info

Callsign NOZ82GE
Flight time N/A
Altitude 35000
Route ENGM/01R OKSAT L996 KELIN DCT SALLO DCT HDO DCT SASAL DCT LURID DCT RODON DCT LIMJA DCT PITAS UN732 KRK UT321 ASTUS
Aircraft B738/M-SDE2E3FGHIRWXY/LB1

Departure

Time N/A
Airport Oslo-Gardermoen International Airport (ENGM)

Arrival

Time 2026-05-05 19:50
Airport Kefallinia Airport (LGKF)
Time Latitude Longitude Altitude Speed Heading
2026-05-05 18:45 44.00339 17.94606 35050 ft 452 kts 165°
2026-05-05 18:45 43.97372 17.96010 35075 ft 450 kts 165°
2026-05-05 18:45 43.91391 17.98829 35073 ft 458 kts 165°
2026-05-05 18:46 43.85299 18.01704 35066 ft 466 kts 165°
2026-05-05 18:46 43.79158 18.04596 35058 ft 466 kts 165°
2026-05-05 18:47 43.73033 18.07470 35058 ft 464 kts 165°
2026-05-05 18:47 43.66930 18.10329 35064 ft 463 kts 165°
2026-05-05 18:48 43.60845 18.13174 35084 ft 461 kts 165°
2026-05-05 18:48 43.54781 18.16004 35099 ft 459 kts 165°
2026-05-05 18:49 43.48741 18.18815 35088 ft 458 kts 165°
2026-05-05 18:49 43.42710 18.21617 35091 ft 457 kts 165°
2026-05-05 18:50 43.36680 18.24411 35092 ft 457 kts 165°
2026-05-05 18:50 43.30686 18.27183 35096 ft 458 kts 165°
2026-05-05 18:51 43.24644 18.29972 35097 ft 459 kts 165°
2026-05-05 18:51 43.18582 18.32765 35091 ft 460 kts 165°
2026-05-05 18:52 43.12524 18.35550 35092 ft 460 kts 165°
2026-05-05 18:52 43.06451 18.38336 35091 ft 460 kts 166°
2026-05-05 18:53 43.00387 18.41113 35088 ft 460 kts 166°
2026-05-05 18:53 42.94327 18.43879 35116 ft 457 kts 165°
2026-05-05 18:54 42.88270 18.46640 35091 ft 460 kts 166°
2026-05-05 18:54 42.82175 18.49413 35092 ft 464 kts 166°
2026-05-05 18:55 42.76040 18.52198 35090 ft 466 kts 166°
2026-05-05 18:55 42.69881 18.54989 35067 ft 467 kts 166°
2026-05-05 18:56 42.63721 18.57775 35069 ft 466 kts 166°
2026-05-05 18:56 42.57578 18.60549 35075 ft 465 kts 166°
2026-05-05 18:57 42.51455 18.63305 35081 ft 463 kts 166°
2026-05-05 18:57 42.45347 18.66049 35072 ft 462 kts 166°
2026-05-05 18:58 42.39257 18.68779 35074 ft 461 kts 166°
2026-05-05 18:58 42.33175 18.71500 35078 ft 461 kts 166°
2026-05-05 18:59 42.27132 18.74198 35060 ft 461 kts 166°
2026-05-05 18:59 42.21050 18.76909 35075 ft 460 kts 166°
2026-05-05 19:00 42.14958 18.79618 35087 ft 463 kts 166°
2026-05-05 19:00 42.08810 18.82345 35089 ft 467 kts 166°
2026-05-05 19:01 42.02625 18.85084 35074 ft 469 kts 166°
2026-05-05 19:01 41.96422 18.87827 35084 ft 470 kts 166°
2026-05-05 19:02 41.90210 18.90568 35080 ft 470 kts 166°
2026-05-05 19:02 41.83991 18.93306 35071 ft 470 kts 166°
2026-05-05 19:03 41.77788 18.96032 35079 ft 469 kts 166°
2026-05-05 19:03 41.71598 18.98746 35084 ft 468 kts 166°
2026-05-05 19:04 41.65421 19.01449 35084 ft 467 kts 166°
2026-05-05 19:04 41.59256 19.04141 35074 ft 466 kts 166°
2026-05-05 19:05 41.53092 19.06828 35088 ft 465 kts 166°
2026-05-05 19:05 41.46934 19.09506 35086 ft 466 kts 166°
2026-05-05 19:06 41.40798 19.12329 35094 ft 467 kts 164°
2026-05-05 19:06 41.34690 19.15366 35081 ft 469 kts 164°
2026-05-05 19:07 41.29608 19.17891 35092 ft 470 kts 164°
2026-05-05 19:07 41.23459 19.20906 35089 ft 472 kts 165°
2026-05-05 19:08 41.17284 19.23909 35086 ft 473 kts 165°
2026-05-05 19:08 41.11090 19.26911 35088 ft 474 kts 165°
2026-05-05 19:09 41.04886 19.29914 35087 ft 475 kts 165°
2026-05-05 19:09 40.98670 19.32917 35087 ft 475 kts 165°
2026-05-05 19:10 40.92453 19.35915 35078 ft 475 kts 165°
2026-05-05 19:10 40.86243 19.38905 35089 ft 475 kts 165°
2026-05-05 19:11 40.80029 19.41889 35091 ft 475 kts 165°
2026-05-05 19:11 40.73814 19.44868 35085 ft 475 kts 165°
2026-05-05 19:12 40.67604 19.47839 35090 ft 475 kts 165°
2026-05-05 19:12 40.61389 19.50807 35088 ft 475 kts 165°
2026-05-05 19:13 40.55171 19.53769 35089 ft 475 kts 165°
2026-05-05 19:13 40.48950 19.56718 35072 ft 473 kts 164°
2026-05-05 19:14 40.42876 19.59599 34702 ft 457 kts 165°
2026-05-05 19:14 40.39928 19.60993 34243 ft 457 kts 165°
2026-05-05 19:14 40.36928 19.62408 33681 ft 458 kts 165°
2026-05-05 19:15 40.33935 19.63818 33249 ft 455 kts 165°
2026-05-05 19:15 40.30971 19.65216 32924 ft 450 kts 165°
2026-05-05 19:15 40.28035 19.66600 32566 ft 446 kts 165°
2026-05-05 19:15 40.25148 19.67960 32458 ft 434 kts 165°
2026-05-05 19:16 40.19488 19.70619 32482 ft 437 kts 165°
2026-05-05 19:16 40.13663 19.73342 32505 ft 451 kts 165°
2026-05-05 19:17 40.07726 19.76121 32513 ft 455 kts 165°
2026-05-05 19:17 40.01806 19.78896 32471 ft 447 kts 164°
2026-05-05 19:18 39.95973 19.81618 32477 ft 446 kts 164°
2026-05-05 19:18 39.90104 19.84349 32277 ft 451 kts 164°
2026-05-05 19:19 39.87165 19.85767 32011 ft 449 kts 163°
2026-05-05 19:19 39.84264 19.87230 31753 ft 445 kts 162°
2026-05-05 19:19 39.81399 19.88697 31482 ft 439 kts 162°
2026-05-05 19:19 39.78574 19.90143 31234 ft 436 kts 162°
2026-05-05 19:20 39.75752 19.91580 30991 ft 434 kts 162°
2026-05-05 19:20 39.72950 19.92998 30740 ft 431 kts 162°
2026-05-05 19:20 39.70162 19.94402 30500 ft 428 kts 162°
2026-05-05 19:20 39.67390 19.95795 30263 ft 426 kts 162°
2026-05-05 19:21 39.64627 19.97182 29996 ft 425 kts 163°
2026-05-05 19:21 39.61879 19.98559 29718 ft 423 kts 162°
2026-05-05 19:21 39.59134 19.99934 29438 ft 422 kts 162°
2026-05-05 19:21 39.56397 20.01304 29147 ft 421 kts 162°
2026-05-05 19:22 39.53664 20.02672 28885 ft 421 kts 162°
2026-05-05 19:22 39.50940 20.04034 28616 ft 420 kts 162°
2026-05-05 19:22 39.48213 20.05396 28352 ft 419 kts 162°
2026-05-05 19:22 39.45485 20.06691 28085 ft 416 kts 167°
2026-05-05 19:23 39.42679 20.07473 27819 ft 410 kts 178°
2026-05-05 19:23 39.39852 20.07695 27579 ft 405 kts 182°
2026-05-05 19:23 39.37037 20.07829 27319 ft 404 kts 182°
2026-05-05 19:23 39.34270 20.07955 27068 ft 403 kts 182°
2026-05-05 19:24 39.31441 20.08092 26808 ft 401 kts 182°
2026-05-05 19:24 39.28659 20.08238 26550 ft 399 kts 182°
2026-05-05 19:24 39.25928 20.08390 26310 ft 397 kts 182°
2026-05-05 19:24 39.23178 20.08548 26063 ft 395 kts 182°
2026-05-05 19:25 39.20444 20.08708 25818 ft 392 kts 182°
2026-05-05 19:25 39.17723 20.08868 25575 ft 390 kts 182°
2026-05-05 19:25 39.15018 20.09027 25334 ft 388 kts 182°
2026-05-05 19:25 39.12331 20.09184 25093 ft 385 kts 182°
2026-05-05 19:26 39.09660 20.09340 24853 ft 383 kts 182°
2026-05-05 19:26 39.07003 20.09495 24619 ft 381 kts 182°
2026-05-05 19:26 39.04364 20.09649 24386 ft 379 kts 182°
2026-05-05 19:26 39.01738 20.09802 24149 ft 377 kts 182°
2026-05-05 19:27 38.99125 20.09954 23931 ft 375 kts 182°
2026-05-05 19:27 38.96523 20.10105 23713 ft 373 kts 182°
2026-05-05 19:27 38.93936 20.10248 23440 ft 372 kts 182°
2026-05-05 19:27 38.91358 20.10383 23171 ft 370 kts 182°
2026-05-05 19:28 38.88791 20.10516 22899 ft 368 kts 182°
2026-05-05 19:28 38.86232 20.10648 22638 ft 367 kts 182°
2026-05-05 19:28 38.83688 20.10780 22377 ft 366 kts 182°
2026-05-05 19:28 38.81148 20.10912 22113 ft 364 kts 182°
2026-05-05 19:29 38.78621 20.11044 21863 ft 363 kts 182°
2026-05-05 19:29 38.76099 20.11176 21609 ft 362 kts 182°
2026-05-05 19:29 38.73587 20.11307 21355 ft 360 kts 182°
2026-05-05 19:29 38.71089 20.11437 21104 ft 359 kts 182°
2026-05-05 19:30 38.68596 20.11567 20847 ft 358 kts 181°
2026-05-05 19:30 38.66117 20.11696 20624 ft 355 kts 181°
2026-05-05 19:30 38.63661 20.11825 20318 ft 352 kts 181°
2026-05-05 19:30 38.61223 20.11952 19998 ft 349 kts 181°
2026-05-05 19:31 38.58801 20.12078 19681 ft 347 kts 181°
2026-05-05 19:31 38.56426 20.12201 19356 ft 346 kts 181°
2026-05-05 19:31 38.54028 20.12325 19020 ft 344 kts 181°
2026-05-05 19:31 38.51643 20.12448 18695 ft 343 kts 181°
2026-05-05 19:32 38.49261 20.12571 18341 ft 342 kts 181°
2026-05-05 19:32 38.46886 20.12694 17957 ft 341 kts 181°
2026-05-05 19:32 38.44522 20.12817 17599 ft 339 kts 181°
2026-05-05 19:32 38.42179 20.12888 17263 ft 335 kts 188°
2026-05-05 19:33 38.40018 20.12039 16998 ft 319 kts 216°
2026-05-05 19:33 38.38266 20.10397 16773 ft 311 kts 222°
2026-05-05 19:33 38.36591 20.08673 16482 ft 308 kts 221°
2026-05-05 19:33 38.34874 20.07040 16187 ft 307 kts 218°
2026-05-05 19:34 38.33092 20.05544 15888 ft 306 kts 215°
2026-05-05 19:34 38.31254 20.04183 15589 ft 306 kts 212°
2026-05-05 19:34 38.29365 20.02949 15297 ft 305 kts 208°
2026-05-05 19:35 38.25458 20.00864 14691 ft 304 kts 202°
2026-05-05 19:35 38.23456 20.00018 14395 ft 304 kts 199°
2026-05-05 19:35 38.21418 19.99303 14097 ft 303 kts 196°
2026-05-05 19:35 38.19358 19.98721 13780 ft 303 kts 193°
2026-05-05 19:36 38.17280 19.98274 13439 ft 303 kts 190°
2026-05-05 19:36 38.15189 19.97963 13132 ft 302 kts 187°
2026-05-05 19:36 38.13097 19.97788 12823 ft 301 kts 184°
2026-05-05 19:36 38.11005 19.97747 12519 ft 300 kts 181°
2026-05-05 19:37 38.08921 19.97840 12222 ft 299 kts 178°
2026-05-05 19:37 38.06851 19.98065 11920 ft 298 kts 175°
2026-05-05 19:37 38.04798 19.98416 11622 ft 297 kts 172°
2026-05-05 19:37 38.02766 19.98862 11321 ft 296 kts 170°
2026-05-05 19:38 38.00755 19.99425 11021 ft 296 kts 167°
2026-05-05 19:38 37.98782 20.00138 10748 ft 294 kts 160°
2026-05-05 19:38 37.97126 20.01581 10488 ft 290 kts 126°
2026-05-05 19:38 37.96408 20.03892 10289 ft 281 kts 90°
2026-05-05 19:39 37.96813 20.06213 10199 ft 266 kts 63°
2026-05-05 19:39 37.97575 20.08337 9988 ft 267 kts 64°
2026-05-05 19:39 37.98328 20.10518 9714 ft 272 kts 65°
2026-05-05 19:39 37.99084 20.12741 9433 ft 278 kts 65°
2026-05-05 19:40 37.99836 20.15008 9145 ft 279 kts 65°
2026-05-05 19:40 38.00578 20.17272 8853 ft 277 kts 65°
2026-05-05 19:40 38.01301 20.19497 8564 ft 276 kts 66°
2026-05-05 19:40 38.02033 20.21752 8189 ft 278 kts 65°
2026-05-05 19:41 38.02768 20.24018 7912 ft 277 kts 66°
2026-05-05 19:41 38.03396 20.26321 7595 ft 278 kts 82°
2026-05-05 19:41 38.03077 20.28695 7320 ft 277 kts 118°
2026-05-05 19:41 38.01816 20.30497 7072 ft 274 kts 143°
2026-05-05 19:42 38.00260 20.31881 6803 ft 273 kts 144°
2026-05-05 19:42 37.98758 20.33350 6514 ft 272 kts 139°
2026-05-05 19:42 37.97404 20.35014 6220 ft 271 kts 131°
2026-05-05 19:42 37.96230 20.36874 5928 ft 270 kts 124°
2026-05-05 19:43 37.95237 20.38884 5648 ft 269 kts 118°
2026-05-05 19:43 37.94412 20.41011 5367 ft 268 kts 113°
2026-05-05 19:43 37.93756 20.43214 5084 ft 268 kts 107°
2026-05-05 19:43 37.93271 20.45488 4813 ft 267 kts 102°
2026-05-05 19:44 37.92966 20.47806 4523 ft 266 kts 96°
2026-05-05 19:44 37.92847 20.50130 4256 ft 264 kts 89°
2026-05-05 19:44 37.92914 20.52421 4139 ft 256 kts 83°
2026-05-05 19:44 37.93150 20.54619 4044 ft 246 kts 78°
2026-05-05 19:45 37.93528 20.56676 3863 ft 236 kts 73°
2026-05-05 19:45 37.94048 20.58664 3533 ft 231 kts 66°
2026-05-05 19:45 37.94660 20.60462 3482 ft 214 kts 62°
2026-05-05 19:45 37.95408 20.62001 3492 ft 203 kts 42°
2026-05-05 19:46 37.96625 20.62754 3446 ft 193 kts
2026-05-05 19:46 37.97878 20.62370 3271 ft 186 kts 327°
2026-05-05 19:46 37.98940 20.61440 3035 ft 185 kts 324°
2026-05-05 19:46 37.99991 20.60505 2785 ft 184 kts 324°
2026-05-05 19:47 38.01032 20.59578 2524 ft 181 kts 323°
2026-05-05 19:47 38.02053 20.58667 2289 ft 178 kts 323°
2026-05-05 19:47 38.03048 20.57777 2070 ft 176 kts 323°
2026-05-05 19:47 38.04049 20.56889 1820 ft 169 kts 324°
2026-05-05 19:48 38.04984 20.56062 1593 ft 160 kts 323°
2026-05-05 19:48 38.05873 20.55278 1347 ft 155 kts 323°
2026-05-05 19:48 38.06769 20.54504 1017 ft 151 kts 324°
2026-05-05 19:48 38.07598 20.53787 897 ft 141 kts 323°
2026-05-05 19:49 38.08398 20.53093 855 ft 140 kts 324°
2026-05-05 19:49 38.08954 20.52629 730 ft 142 kts 326°
2026-05-05 19:49 38.10037 20.51691 385 ft 141 kts 327°
2026-05-05 19:49 38.10842 20.51037 209 ft 136 kts 326°
2026-05-05 19:50 38.11629 20.50371 72 ft 128 kts 327°
2026-05-05 19:50 38.12247 20.49842 59 ft 78 kts 327°
2026-05-05 19:50 38.12520 20.49611 50 ft 16 kts 326°
2026-05-05 19:50 38.12533 20.49602 52 ft 0 kts 341°
2026-05-05 19:51 38.12560 20.49594 51 ft 8 kts 332°
2026-05-05 19:51 38.12550 20.49587 52 ft 5 kts 153°
2026-05-05 19:51 38.12504 20.49626 53 ft 10 kts 147°
2026-05-05 19:51 38.12437 20.49682 56 ft 12 kts 146°
2026-05-05 19:52 38.12370 20.49740 55 ft 12 kts 146°
2026-05-05 19:52 38.12296 20.49803 61 ft 13 kts 146°
2026-05-05 19:52 38.12218 20.49870 57 ft 14 kts 146°
2026-05-05 19:52 38.12138 20.49938 59 ft 13 kts 146°
2026-05-05 19:53 38.12063 20.50003 66 ft 13 kts 146°
2026-05-05 19:53 38.11989 20.50066 67 ft 13 kts 146°
2026-05-05 19:53 38.11916 20.50124 65 ft 12 kts 152°
2026-05-05 19:53 38.11894 20.50222 64 ft 12 kts 88°
2026-05-05 19:54 38.11922 20.50299 64 ft 8 kts 51°
2026-05-05 19:54 38.11943 20.50340 67 ft 0 kts 58°
2026-05-05 19:54 38.11949 20.50350 67 ft 2 kts 56°
2026-05-05 19:55 38.11950 20.50353 67 ft 1 kts 56°
2026-05-05 19:55 38.11953 20.50358 60 ft 0 kts 56°